FW3137 Weather Reports


time (UTC)temp
C
wind
direction
speed
KPH
gust
KPH
rain 1hr
cm
rain 24hr
cm
rain mn
cm
humidity
%
barometer
mb
20260502162217 19 248 9.7 16.1 0.00 0.00 0.00 25 1013.0
20260502161217 18 248 11.3 24.1 0.00 0.00 0.00 27 1013.2
20260502160217 17 0 6.4 14.5 0.00 0.00 0.00 30 1013.3
20260502152216 15 0 9.7 14.5 0.00 0.00 0.00 35 1014.2
20260502151216 14 0 8.0 12.9 0.00 0.00 0.00 35 1014.3
20260502150216 13 248 6.4 11.3 0.00 0.00 0.00 36 1014.5
20260502130216 8 0 3.2 8.0 0.00 0.00 0.00 44 1015.9
20260502123216 7 203 6.4 11.3 0.00 0.00 0.00 44 1016.2
20260502122216 7 248 4.8 9.7 0.00 0.00 0.00 44 1016.1
20260502121216 7 203 4.8 8.0 0.00 0.00 0.00 43 1016.3
20260502120216 6 180 8.0 12.9 0.00 0.00 0.00 43 1016.2
20260502115216 6 203 6.4 11.3 0.00 0.00 0.00 44 1016.4
20260502114216 6 203 4.8 9.7 0.00 0.00 0.00 44 1016.2
20260502113236 6 203 9.7 14.5 0.00 0.00 0.00 44 1016.3
20260502112216 6 225 4.8 8.0 0.00 0.00 0.00 45 1016.4
20260502111216 5 203 3.2 9.7 0.00 0.00 0.00 46 1016.4
20260502110216 5 203 4.8 11.3 0.00 0.00 0.00 46 1016.6
20260502105216 5 203 8.0 11.3 0.00 0.00 0.00 48 1016.6
20260502104236 3 180 6.4 12.9 0.00 0.00 0.00 50 1016.7
20260502103236 5 180 1.6 6.4 0.00 0.00 0.00 47 1017.0
20260502102216 5 158 4.8 8.0 0.00 0.00 0.00 48 1017.1
20260502101216 5 203 1.6 9.7 0.00 0.00 0.00 48 1017.3
20260502100236 5 248 3.2 8.0 0.00 0.00 0.00 48 1017.5
20260502091255 5 225 3.2 4.8 0.00 0.00 0.00 47 1017.7
20260502090215 5 203 3.2 8.0 0.00 0.00 0.00 47 1017.6
20260502071217 3 0.0 0.0 0.00 0.00 0.00 46 1018.3
20260502070217 3 0.0 0.0 0.00 0.00 0.00 45 1018.4
20260502065258 3 0.0 0.0 0.00 0.00 0.00 44 1018.5
20260502064217 3 0.0 0.0 0.00 0.00 0.00 44 1018.6
20260502063237 3 0.0 0.0 0.00 0.00 0.00 43 1018.7
20260502062217 3 0.0 0.0 0.00 0.00 0.00 43 1018.7
20260502061217 3 0.0 0.0 0.00 0.00 0.00 43 1018.8
20260502060217 3 0.0 0.0 0.00 0.00 0.00 43 1018.8
20260502055217 3 0.0 0.0 0.00 0.00 0.00 43 1018.8
20260502054217 3 0.0 0.0 0.00 0.00 0.00 42 1018.8
20260502053217 4 0.0 0.0 0.00 0.00 0.00 40 1018.9
20260502052217 4 0.0 0.0 0.00 0.00 0.00 40 1018.8
20260502051217 5 0.0 0.0 0.00 0.00 0.00 39 1018.8
20260502050217 5 0.0 0.0 0.00 0.00 0.00 38 1019.0
20260502045235 5 0.0 0.0 0.00 0.00 0.00 37 1018.9
20260502044237 5 0.0 0.0 0.00 0.00 0.00 37 1019.0
20260502043257 6 0.0 0.0 0.00 0.00 0.00 36 1019.0
20260502042217 5 0.0 1.6 0.00 0.00 0.00 35 1019.0
20260502041217 6 0.0 0.0 0.00 0.00 0.00 35 1019.0
20260502040237 6 0.0 0.0 0.00 0.00 0.00 35 1019.2
20260502035217 6 0.0 1.6 0.00 0.00 0.00 34 1019.2
20260502034217 6 0.0 0.0 0.00 0.00 0.00 33 1019.2
20260502033217 6 0.0 1.6 0.00 0.00 0.00 33 1019.1
20260502032217 7 0.0 0.0 0.00 0.00 0.00 32 1019.2
20260502031217 7 0.0 0.0 0.00 0.00 0.00 31 1019.2
20260502030237 8 0.0 0.0 0.00 0.00 0.00 29 1019.2
20260502025217 8 0.0 1.6 0.00 0.00 0.00 29 1019.2
20260502024237 8 0.0 0.0 0.00 0.00 0.00 33 1019.4
20260502023217 9 248 3.2 4.8 0.00 0.00 0.00 28 1019.2
20260502022217 9 0.0 0.0 0.00 0.00 0.00 27 1019.2
20260502021217 10 0.0 0.0 0.00 0.00 0.00 30 1019.1
20260502020217 10 0.0 0.0 0.00 0.00 0.00 23 1019.2
20260502015217 11 0.0 0.0 0.00 0.00 0.00 22 1019.3
20260502014217 11 0.0 0.0 0.00 0.00 0.00 21 1019.1
20260502013217 12 0.0 0.0 0.00 0.00 0.00 20 1019.2
20260502012217 12 315 3.2 4.8 0.00 0.00 0.00 19 1019.2
20260502011236 12 0.0 1.6 0.00 0.00 0.00 20 1019.0
20260502010217 12 315 3.2 4.8 0.00 0.00 0.00 21 1019.1
20260502005216 12 315 4.8 8.0 0.00 0.00 0.00 20 1019.1
20260502004216 13 338 4.8 9.7 0.00 0.00 0.00 17 1019.0
20260502003216 13 0 8.0 9.7 0.00 0.00 0.00 21 1019.1
20260502002217 13 0 8.0 9.7 0.00 0.00 0.00 16 1019.2
20260502001217 13 0 4.8 6.4 0.00 0.00 0.00 17 1019.1
20260502000218 13 0 6.4 14.5 0.00 0.00 0.00 17 1019.2
20260501235217 13 0 6.4 8.0 0.00 0.00 0.00 19 1019.3
20260501234216 13 0 6.4 8.0 0.00 0.00 0.00 17 1019.3
20260501233216 13 0 3.2 4.8 0.00 0.00 0.00 17 1019.4
20260501232216 13 0 8.0 9.7 0.00 0.00 0.00 17 1019.2
20260501231216 13 0 4.8 8.0 0.00 0.00 0.00 18 1019.4
20260501230216 13 0 6.4 8.0 0.00 0.00 0.00 19 1019.4
20260501225216 13 0 8.0 12.9 0.00 0.00 0.00 21 1019.5
20260501224216 13 0 3.2 4.8 0.00 0.00 0.00 18 1019.4
20260501223216 13 0 9.7 16.1 0.00 0.00 0.00 20 1019.4
20260501222217 13 0 8.0 9.7 0.00 0.00 0.00 20 1019.4
20260501221236 13 0 9.7 14.5 0.00 0.00 0.00 22 1019.5
20260501220236 13 0 3.2 9.7 0.00 0.00 0.00 21 1019.8
20260501215217 13 0 3.2 6.4 0.00 0.00 0.00 21 1019.8
20260501214216 13 0 4.8 8.0 0.00 0.00 0.00 22 1019.8
20260501213216 13 0 3.2 3.2 0.00 0.00 0.00 22 1019.9
20260501212216 13 0 9.7 14.5 0.00 0.00 0.00 25 1019.9
20260501211216 13 0 3.2 4.8 0.00 0.00 0.00 22 1020.0
20260501210216 12 315 1.6 3.2 0.00 0.00 0.00 23 1020.0
20260501205216 12 0 9.7 16.1 0.00 0.00 0.00 24 1020.1
20260501204216 12 0 14.5 19.3 0.00 0.00 0.00 25 1020.2
20260501203216 12 225 8.0 11.3 0.00 0.00 0.00 23 1020.3
20260501202216 12 68 1.6 3.2 0.00 0.00 0.00 29 1020.4
20260501201216 12 45 11.3 16.1 0.00 0.00 0.00 24 1020.6
20260501200236 12 270 9.7 12.9 0.00 0.00 0.00 25 1020.7
20260501195216 11 68 3.2 4.8 0.00 0.00 0.00 27 1020.7
20260501194216 11 0 12.9 19.3 0.00 0.00 0.00 29 1020.9
20260501193216 11 23 9.7 14.5 0.00 0.00 0.00 31 1020.8
20260501192216 11 293 4.8 6.4 0.00 0.00 0.00 27 1020.9
20260501191216 11 338 4.8 9.7 0.00 0.00 0.00 30 1021.0
20260501190216 11 0 8.0 12.9 0.00 0.00 0.00 29 1021.1
20260501185216 10 248 4.8 9.7 0.00 0.00 0.00 30 1021.1
20260501184216 11 315 9.7 16.1 0.00 0.00 0.00 30 1021.2
20260501183216 10 293 3.2 4.8 0.00 0.00 0.00 30 1021.3
20260501182236 10 45 3.2 4.8 0.00 0.00 0.00 33 1021.2
20260501181216 10 23 1.6 3.2 0.00 0.00 0.00 33 1021.3
20260501180216 10 0 6.4 12.9 0.00 0.00 0.00 34 1021.3
20260501175236 9 0 9.7 14.5 0.00 0.00 0.00 33 1021.6
20260501174215 9 23 1.6 4.8 0.00 0.00 0.00 33 1021.6
20260501173216 9 23 6.4 6.4 0.00 0.00 0.00 32 1021.8
20260501172216 9 315 3.2 6.4 0.00 0.00 0.00 32 1021.9
20260501171216 8 0 9.7 14.5 0.00 0.00 0.00 34 1021.8
20260501170216 8 23 3.2 4.8 0.00 0.00 0.00 36 1022.0
20260501165215 8 293 6.4 11.3 0.00 0.00 0.00 36 1021.9
20260501164216 8 293 9.7 12.9 0.00 0.00 0.00 36 1022.2
20260501163215 8 315 1.6 4.8 0.00 0.00 0.00 36 1022.2